Location: Unspecified
(0.0000°N, 0.0000°E)
Time: 15:39:36
(UTC+01:00)

Resurs 01 Rocket - Visible Passes

Search period start: 31 January 2015 00:00
Search period end: 10 February 2015 00:00
Orbit: 636 x 645 km, 98.2° (Epoch: 30 January)

Date Brightness Start Highest point End Pass type
(mag) Time Alt. Az. Time Alt. Az. Time Alt. Az.
01 Feb 2.8 19:30:03 10° S 19:34:19 49° WSW 19:38:33 10° NNW visible
02 Feb 5.5 06:09:27 10° E 06:09:39 10° E 06:10:15 10° ESE visible
02 Feb 4.4 19:54:24 10° SSW 19:57:57 23° W 20:01:22 10° NW visible
03 Feb 4.6 06:29:59 10° NE 06:33:20 22° E 06:36:50 10° SSE visible
03 Feb 5.3 20:20:22 10° WSW 20:21:37 11° W 20:22:30 10° W visible
06 Feb 4.3 19:52:21 10° SSW 19:56:01 25° W 19:59:34 10° NW visible
07 Feb 4.7 06:28:13 10° NE 06:31:24 20° E 06:34:45 10° SSE visible
07 Feb 5.2 20:17:55 10° SW 20:19:40 12° W 20:21:07 10° W visible
